Location: Plainartige
(45.6866°N, 1.7993°E)
Time: 07:03:58
(UTC+00:00)

Oscar 19 - Pass Details

Date: 09 July 2022
Orbit: 773 x 790 km, 98.8° (Epoch: 12 August)

Event Time Altitude Azimuth Distance (km) Brightness Sun altitude
Rises 02:46:25 0° 22° (NNE) 3,260 15.5 -12.0°
Reaches altitude 10° 02:48:57 10° 32° (NNE) 2,328 14.6 -11.7°
Maximum altitude 02:53:35 34° 97° (E) 1,262 12.1 -11.1°
Drops below altitude 10° 02:58:12 10° 161° (SSE) 2,317 12.8 -10.6°
Sets 03:00:42 0° 171° (S) 3,241 13.5 -10.3°
